User: anonymous   Login
Location: Bergen
(60.3910°N, 5.3250°E)
Time: 04:35:37
(UTC+02:00)
Language:

Cosmos 1943 - Orbit

View from above orbital plane
View from above orbital plane
View from above satellite
View from above satellite

Ground track
Ground track

The orbit data is extracted from the following two-line orbital elements,

1 19119U 88039A   15183.52365980  .00000132  00000-0  92708-4 0  9991
2 19119 071.0017 164.5997 0009635 061.6011 077.4934 14.15020890400859
Epoch (UTC): 02 July 2015 12:34:04
Eccentricity: 0.0009635
inclination: 71.0017°
perigee height: 835 km
apogee height: 849 km
right ascension of ascending node: 164.5997°
argument of perigee: 61.6011°
revolutions per day: 14.15020890
mean anomaly at epoch: 77.4934°
orbit number at epoch: 40085

The dashed part of the orbit path shows where the satellite is in the earth's shadow,  

DLR